Vertical_Velocity
5 2 -0 7 3 1 1 4 -3 1 2 2 0 -0 -1 0 -0 -1 0 1 -0 2
-3 6 13 -4 1 -8 5 2 -5 3 2 4 -0 -1 -1 0 -2 -1 -0 1 3 -0
-1 7 4 6 1 3 -12 1 -0 -1 0 -0 -1 -2 -1 0 -1 -1 -4 2 -1 1
-3 -1 -5 7 3 3 -10 3 1 1 -2 -1 2 -1 -2 1 -1 2 -5 1 -0 1
3 7 1 9 2 2 2 2 -1 -0 -0 -0 -0 -2 -1 -3 1 2 -0 1 -1 -1
1 -0 -3 6 2 -0 -3 0 -0 -1 -1 -5 1 -2 -1 -3 -0 -1 2 2 1 1
0 0 4 3 -0 -3 2 2 -2 2 -1 -2 -0 -0 -1 1 3 1 -2 2 2 -2
1 3 2 -1 -1 1 2 0 -2 -4 -3 -3 -1 -1 -2 1 -2 -0 -3 -2 1 0
2 2 2 1 1 3 -0 -4 -4 -1 -1 1 -1 -1 0 1 -4 0 -0 -1 -3 3
-0 0 1 1 -1 -2 -3 -2 -1 -1 -2 -0 1 -2 -3 -1 -1 -1 -0 2 -0 -5
3 2 2 1 0 -1 0 -0 -0 0 -1 -1 -1 0 1 0 0 0 -1 2 0 3
1 1 1 1 0 0 -1 -2 -2 -2 -3 -2 0 -1 -1 1 1 1 -2 -1 3 0
1 -1 0 0 1 -1 -1 -0 -2 -1 -1 -0 -1 1 -0 -1 0 -1 1 1 2 -2
2 2 1 0 1 1 -0 -1 -1 -0 -0 1 2 -0 -1 -2 0 -0 -0 -1 2 3
Height
3127 3130 3131 3132 3132 3132 3133 3134 3133 3131 3131 3130 3128 3126 3124 3122 3120 3118 3117 3115 3113 3112
3120 3121 3123 3123 3123 3125 3125 3124 3125 3123 3122 3120 3118 3117 3115 3112 3111 3109 3107 3105 3105 3102
3111 3113 3114 3115 3115 3116 3116 3117 3115 3114 3113 3111 3109 3106 3105 3103 3101 3100 3098 3097 3096 3093
3103 3105 3104 3107 3108 3108 3108 3108 3107 3106 3104 3101 3099 3097 3095 3093 3091 3090 3088 3087 3085 3084
3095 3096 3098 3099 3099 3099 3099 3099 3098 3096 3094 3092 3090 3087 3086 3084 3082 3081 3078 3077 3076 3075
3086 3087 3089 3090 3090 3090 3090 3089 3088 3086 3084 3083 3081 3079 3077 3075 3073 3071 3069 3068 3065 3064
3079 3080 3081 3082 3082 3082 3081 3080 3079 3077 3076 3075 3072 3070 3068 3065 3063 3062 3060 3058 3056 3055
3072 3074 3074 3075 3075 3075 3074 3072 3071 3070 3068 3066 3064 3061 3059 3057 3055 3053 3051 3049 3048 3047
3067 3067 3068 3068 3068 3067 3066 3065 3064 3062 3059 3057 3055 3052 3050 3047 3045 3043 3043 3042 3040 3039
3061 3062 3063 3063 3062 3061 3059 3058 3056 3054 3051 3049 3046 3043 3041 3039 3037 3035 3034 3034 3034 3034
3055 3056 3056 3056 3055 3054 3052 3051 3048 3046 3043 3040 3037 3034 3032 3030 3029 3028 3028 3028 3028 3030
3049 3049 3049 3048 3047 3046 3045 3043 3040 3038 3035 3032 3029 3026 3024 3023 3022 3022 3023 3023 3024 3026
3042 3042 3042 3041 3040 3038 3037 3035 3033 3030 3028 3025 3023 3020 3018 3018 3017 3018 3019 3020 3022 3024
3034 3034 3034 3032 3031 3030 3029 3027 3025 3023 3020 3018 3016 3014 3012 3012 3013 3014 3016 3018 3019 3020